CW9546 Weather Reports


Display with metric or nautical units.
time (UTC)temp
F
wind
direction
speed
MPH
gust
MPH
rain 1hr
in
rain 24hr
in
rain mn
in
humidity
%
barometer
mb
20260507123038 47 139 0.0 0.0 0.00 0.00 0.00 79 1020.0
20260507122122 47 139 0.0 0.0 0.00 0.00 0.00 79 1020.1
20260507121048 47 139 0.0 0.0 0.00 0.00 0.00 79 1020.1
20260507120108 47 139 0.0 0.0 0.00 0.00 0.00 79 1020.2
20260507115035 47 139 0.0 0.0 0.00 0.00 0.00 79 1020.2
20260507114040 48 139 0.0 0.0 0.00 0.00 0.00 78 1020.2
20260507113035 49 139 0.0 0.0 0.00 0.00 0.00 78 1020.2
20260507112043 49 139 0.0 0.0 0.00 0.00 0.00 78 1020.3
20260507111104 50 139 0.0 0.0 0.00 0.00 0.00 77 1020.3
20260507110039 50 139 1.0 0.0 0.00 0.00 0.00 78 1020.3
20260507105047 50 146 1.0 0.0 0.00 0.00 0.00 77 1020.2
20260507104040 50 182 1.0 0.0 0.00 0.00 0.00 78 1020.2
20260507103042 51 206 0.0 0.0 0.00 0.00 0.00 79 1020.4
20260507102043 51 239 0.0 0.0 0.00 0.00 0.00 79 1020.7
20260507101042 51 242 1.0 0.0 0.00 0.00 0.00 79 1020.7
20260507100040 51 250 0.0 0.0 0.00 0.00 0.00 79 1020.6
20260507095055 51 198 1.0 0.0 0.00 0.00 0.00 79 1020.7
20260507094043 51 197 0.0 0.0 0.00 0.00 0.00 79 1020.7
20260507093119 51 196 0.0 0.0 0.00 0.00 0.00 79 1020.6
20260507092035 51 189 0.0 0.0 0.00 0.00 0.00 79 1020.6
20260507091030 51 225 1.0 0.0 0.00 0.00 0.00 79 1020.6
20260507090046 51 250 1.0 0.0 0.00 0.00 0.00 79 1020.7
20260507085037 51 257 0.0 0.0 0.00 0.00 0.00 79 1020.5
20260507084049 51 205 1.0 0.0 0.00 0.00 0.00 79 1020.5
20260507083046 51 191 1.0 0.0 0.00 0.00 0.00 79 1020.5
20260507082108 51 194 2.0 0.0 0.00 0.00 0.00 79 1020.3
20260507081044 52 266 1.0 0.0 0.00 0.00 0.00 79 1020.3
20260507075036 52 229 1.0 0.0 0.00 0.00 0.00 79 1020.2
20260507074038 52 200 1.0 0.0 0.00 0.00 0.00 79 1020.2
20260507073051 52 247 1.0 0.0 0.00 0.00 0.00 79 1020.3
20260507072100 52 283 1.0 0.0 0.00 0.00 0.00 80 1020.3
20260507071046 52 248 1.0 0.0 0.00 0.00 0.00 80 1020.3
20260507070037 52 181 1.0 0.0 0.00 0.00 0.00 81 1020.1
20260507065048 52 184 1.0 0.0 0.00 0.00 0.00 80 1020.1
20260507064043 52 185 1.0 0.0 0.00 0.00 0.00 80 1020.1
20260507063106 53 183 0.0 0.0 0.00 0.00 0.00 81 1020.2
20260507062054 53 183 0.0 0.0 0.00 0.00 0.00 81 1020.2
20260507061249 53 183 0.0 0.0 0.00 0.00 0.00 81 1020.2
20260507060037 53 185 1.0 0.0 0.00 0.00 0.00 80 1020.3
20260507055102 53 191 1.0 0.0 0.00 0.00 0.00 80 1020.3
20260507054033 53 308 1.0 0.0 0.00 0.00 0.00 80 1020.3
20260507053046 54 309 1.0 0.0 0.00 0.00 0.00 79 1020.3
20260507052105 54 71 2.0 0.0 0.00 0.00 0.00 79 1020.2
20260507051046 54 143 2.0 0.0 0.00 0.00 0.00 79 1020.2
20260507050040 54 140 2.0 0.0 0.00 0.00 0.00 79 1020.3
20260507045053 54 138 2.0 0.0 0.00 0.00 0.00 79 1020.4
20260507044042 54 141 1.0 0.0 0.00 0.00 0.00 79 1020.4
20260507043040 54 148 1.0 0.0 0.00 0.00 0.00 78 1020.4
20260507042038 55 192 0.0 0.0 0.00 0.00 0.00 78 1020.4
20260507041038 55 193 0.0 0.0 0.00 0.00 0.00 78 1020.4
20260507040052 55 196 0.0 0.0 0.00 0.00 0.00 78 1020.3
20260507035045 55 198 1.0 0.0 0.00 0.00 0.00 78 1020.2
20260507034049 55 133 0.0 0.0 0.00 0.00 0.00 77 1020.2
20260507033045 55 134 0.0 0.0 0.00 0.00 0.00 77 1020.1
20260507032042 55 142 1.0 0.0 0.00 0.00 0.00 77 1020.0
20260507031050 55 143 0.0 0.0 0.00 0.00 0.00 77 1020.0
20260507030038 55 143 0.0 0.0 0.00 0.00 0.00 76 1019.9
20260507025042 55 143 1.0 0.0 0.00 0.00 0.00 76 1019.8
20260507024041 55 143 1.0 0.0 0.00 0.00 0.00 76 1019.8
20260507023118 55 148 1.0 0.0 0.00 0.00 0.00 76 1019.7
20260507022045 56 199 1.0 0.0 0.00 0.00 0.00 76 1019.8
20260507021050 56 155 2.0 0.0 0.00 0.00 0.00 76 1019.8
20260507020046 56 147 1.0 0.0 0.00 0.00 0.00 75 1019.8
20260507015037 56 134 1.0 0.0 0.00 0.00 0.00 75 1019.7
20260507014038 56 134 2.0 0.0 0.00 0.00 0.00 74 1019.7
20260507013049 56 136 1.0 0.0 0.00 0.00 0.00 75 1019.7
20260507012103 56 208 1.0 0.0 0.00 0.00 0.00 75 1019.8
20260507011038 56 155 2.0 0.0 0.00 0.00 0.00 74 1019.8
20260507010036 56 217 1.0 0.0 0.00 0.00 0.00 74 1019.9
20260507005031 56 153 2.0 0.0 0.00 0.00 0.00 74 1020.0
20260507004049 56 169 1.0 0.0 0.00 0.00 0.00 75 1020.0
20260507003106 56 145 1.0 0.0 0.00 0.00 0.00 75 1020.1
20260507002043 56 137 1.0 0.0 0.00 0.00 0.00 74 1019.9
20260507001036 56 137 2.0 0.0 0.00 0.00 0.00 74 1019.9
20260507000118 56 141 2.0 0.0 0.00 0.00 0.00 74 1020.0
20260506235030 56 134 2.0 0.0 0.00 0.00 0.00 74 1020.0
20260506234110 56 168 2.0 0.0 0.00 0.00 0.00 74 1020.0
20260506233041 56 121 1.0 0.0 0.00 0.00 0.00 74 1020.1
20260506232050 55 134 1.0 0.0 0.00 0.00 0.00 75 1020.1
20260506231045 55 221 2.0 0.0 0.00 0.00 0.00 75 1020.1
20260506230045 55 240 2.0 0.0 0.00 0.00 0.00 75 1020.2
20260506225054 55 143 2.0 0.0 0.00 0.00 0.00 74 1020.2
20260506224035 55 143 2.0 0.0 0.00 0.00 0.00 75 1020.2
20260506223110 56 76 1.0 0.0 0.00 0.00 0.00 75 1020.2
20260506222047 55 108 1.0 0.0 0.00 0.00 0.00 75 1020.3
20260506221039 55 194 1.0 0.0 0.00 0.00 0.00 76 1020.3
20260506220053 55 144 1.0 0.0 0.00 0.00 0.00 75 1020.3
20260506215044 55 134 1.0 0.0 0.00 0.00 0.00 75 1020.3
20260506214041 55 138 2.0 0.0 0.00 0.00 0.00 75 1020.3
20260506213052 55 195 2.0 0.0 0.00 0.00 0.00 76 1020.3
20260506212034 55 148 1.0 0.0 0.00 0.00 0.00 77 1020.3
20260506211052 55 205 1.0 0.0 0.00 0.00 0.00 77 1020.3
20260506210040 55 253 2.0 0.0 0.00 0.00 0.00 78 1020.2
20260506205041 55 242 2.0 0.0 0.00 0.00 0.00 77 1020.2
20260506204050 55 207 1.0 0.0 0.00 0.00 0.00 78 1020.2
20260506203043 55 27 1.0 0.0 0.00 0.00 0.00 78 1020.2
20260506202049 55 281 1.0 0.0 0.00 0.00 0.00 79 1020.1
20260506201044 55 160 1.0 0.0 0.00 0.00 0.00 79 1020.1
20260506200039 56 266 2.0 0.0 0.00 0.00 0.00 78 1020.0
20260506195050 56 249 2.0 0.0 0.00 0.00 0.00 77 1019.7
20260506194040 57 265 2.0 0.0 0.00 0.00 0.00 75 1019.8
20260506193028 58 335 2.0 0.0 0.00 0.00 0.00 75 1019.8
20260506192038 57 269 2.0 0.0 0.00 0.00 0.00 76 1019.8
20260506191053 55 139 2.0 0.0 0.00 0.00 0.00 75 1019.7
20260506190046 55 197 1.0 0.0 0.00 0.00 0.00 75 1019.9
20260506185102 55 318 2.0 0.0 0.00 0.00 0.00 76 1019.7
20260506184103 55 194 1.0 0.0 0.00 0.00 0.00 76 1019.7
20260506183101 55 205 2.0 0.0 0.00 0.00 0.00 75 1019.8
20260506182036 55 330 1.0 0.0 0.00 0.00 0.00 76 1019.5
20260506181030 55 170 2.0 0.0 0.00 0.00 0.00 75 1019.5
20260506180048 55 171 2.0 0.0 0.00 0.00 0.00 76 1019.4
20260506175044 55 145 2.0 0.0 0.00 0.00 0.00 77 1019.5
20260506173028 55 261 1.0 0.0 0.00 0.00 0.00 76 1019.7
20260506172035 55 240 1.0 0.0 0.00 0.00 0.00 76 1019.6
20260506171048 55 257 1.0 0.0 0.00 0.00 0.00 76 1019.6
20260506170106 55 242 2.0 0.0 0.00 0.00 0.00 75 1019.3
20260506165038 55 176 1.0 0.0 0.00 0.00 0.00 76 1019.1
20260506164056 55 281 2.0 0.0 0.00 0.00 0.00 76 1019.1
20260506163031 54 131 1.0 0.0 0.00 0.00 0.00 76 1019.1
20260506162101 54 249 2.0 0.0 0.00 0.00 0.00 77 1018.8
20260506161043 54 111 1.0 0.0 0.00 0.00 0.00 78 1018.8
20260506160036 54 242 1.0 0.0 0.00 0.00 0.00 78 1018.9
20260506155110 54 193 1.0 0.0 0.00 0.00 0.00 78 1019.2
20260506154046 54 221 1.0 0.0 0.00 0.00 0.00 78 1019.2
20260506153047 54 243 1.0 0.0 0.00 0.00 0.00 78 1019.2
20260506152039 54 262 1.0 0.0 0.00 0.00 0.00 78 1018.7
20260506151115 54 177 1.0 0.0 0.00 0.00 0.00 78 1018.7
20260506150042 53 215 1.0 0.0 0.00 0.00 0.00 77 1019.0
20260506145037 53 290 1.0 0.0 0.00 0.00 0.00 77 1018.9
20260506144054 53 203 1.0 0.0 0.00 0.00 0.00 77 1018.9
20260506143044 53 227 1.0 0.0 0.00 0.00 0.00 77 1018.8
20260506142039 53 265 1.0 0.0 0.00 0.00 0.00 77 1018.7
20260506141034 53 186 1.0 0.0 0.00 0.00 0.00 76 1018.7
20260506140045 53 290 0.0 0.0 0.00 0.00 0.00 76 1018.8
20260506135042 53 218 1.0 0.0 0.00 0.00 0.00 76 1018.7
20260506134057 53 200 0.0 0.0 0.00 0.00 0.00 76 1018.7
20260506133028 53 200 0.0 0.0 0.00 0.00 0.00 76 1018.6
20260506132102 53 200 0.0 0.0 0.00 0.00 0.00 76 1018.1
20260506131043 53 200 1.0 0.0 0.00 0.00 0.00 76 1018.1
20260506130038 53 199 0.0 0.0 0.00 0.00 0.00 76 1018.2
20260506125031 53 200 0.0 0.0 0.00 0.00 0.00 76 1018.1
20260506124046 53 200 0.0 0.0 0.00 0.00 0.00 76 1018.1